Location: Bois de la Silve
(44.4667°N, 6.7833°E)
Time: 08:33:08
(UTC+00:00)

Cosmos 1437 Rocket - Pass Details

Date: 14 July 2020
Orbit: 506 x 562 km, 81.2° (Epoch: 14 August)

Event Time Altitude Azimuth Distance (km) Brightness Sun altitude
Rises 02:07:04 0° 337° (NNW) 2,732 6.8 -15.7°
Reaches altitude 10° 02:09:33 10° 323° (NW) 1,823 5.7 -15.5°
Maximum altitude 02:12:47 24° 270° (W) 1,158 4.1 -15.1°
Enters shadow 02:13:32 22° 252° (WSW) 1,198 4.1 -15.1°
